R/V Knorr Calliope CSV data file  (Time stamps are GMT)
Date, Time_GMT, Depth12, Depth35, Air_Temp, WXT5_Ta, WXT5_Pa, dec_lat, dec_lon, GPS_COG, GPS_SOG, Gyro, IMET_BPR, IMET_SWR, WXT5_Ri, WXT5_Rc, HRH, WXT5_Ua, WXT5_Dm, WXT5_Sm, SBE45C, SBE45S, SBE45T, Salinity, SSCND, Fluorometer, SSTMP, SSV, Wnd_Dir, TWD5, Wnd_Spd, TWS5, HdChkSum=3E
2009/04/16, 00:00:22, , , 26.41, 26.30, 1008.7, 11.2221500, -127.0309270, 289.80, 12.01, 289.70, 1008.56, 422.70, 0.0, 196.35, 70.34, 68.4, 96, 7.8, 55.69800, 33.97540, 28.9030, 33.9754, 55.6980, 61.70, 27.4525, 1539.01, 55.30, 61.9, 10.79, 10.0, 3E
2009/04/16, 00:01:22, , , 26.55, 26.30, 1008.7, 11.2232830, -127.0341820, 291.20, 12.36, 290.40, 1008.61, 570.50, 0.0, 196.35, 71.65, 69.3, 91, 10.4, 55.70290, 33.97650, 28.9061, 33.9765, 55.7029, 62.50, 27.4525, 1539.01, 56.60, 48.4, 10.84, 12.0, 3E
2009/04/16, 00:02:22, , , 26.42, 26.30, 1008.6, 11.2244800, -127.0373930, 290.00, 11.53, 290.30, 1008.52, 556.10, 0.0, 196.35, 69.53, 66.8, 86, 9.0, 55.70590, 33.97760, 28.9075, 33.9776, 55.7059, 61.60, 27.4517, 1539.01, 52.90, 51.6, 11.49, 10.3, 3E
2009/04/16, 00:03:22, , , 26.50, 26.30, 1008.8, 11.2256770, -127.0406320, 289.40, 11.67, 289.90, 1008.57, 513.60, 0.0, 196.35, 70.75, 67.7, 86, 9.4, 55.70150, 33.97860, 28.9019, 33.9786, 55.7015, 61.70, 27.4520, 1539.01, 54.60, 50.0, 10.60, 10.4, 3E
2009/04/16, 00:04:22, , , 26.59, 26.30, 1008.7, 11.2269070, -127.0438480, 296.50, 11.76, 290.80, 1008.66, 546.40, 0.0, 196.35, 71.66, 69.1, 88, 9.5, 55.70500, 33.97890, 28.9049, 33.9789, 55.7050, 63.20, 27.4501, 1539.01, 50.60, 46.9, 10.98, 11.8, 3E
2009/04/16, 00:05:22, , , 26.55, 26.30, 1008.7, 11.2280720, -127.0470680, 276.10, 12.06, 288.90, 1008.42, 547.20, 0.0, 196.35, 70.47, 69.3, 90, 9.2, 55.70520, 33.98060, 28.9027, 33.9806, 55.7052, 61.90, 27.4489, 1539.01, 46.10, 48.9, 11.47, 11.1, 3E
2009/04/16, 00:06:22, , , 26.54, 26.30, 1008.7, 11.2292520, -127.0502630, 290.00, 12.43, 290.70, 1008.31, 541.80, 0.0, 196.35, 70.36, 68.6, 89, 10.6, 55.70410, 33.98130, 28.9006, 33.9813, 55.7041, 61.90, 27.4476, 1539.01, 51.70, 47.2, 11.43, 11.3, 3E
2009/04/16, 00:07:22, , , 26.48, 26.30, 1008.6, 11.2304080, -127.0535130, 295.00, 11.48, 291.10, 1008.46, 545.00, 0.0, 196.35, 69.77, 66.5, 88, 9.1, 55.71110, 33.98310, 28.9049, 33.9831, 55.7111, 61.60, 27.4470, 1539.01, 49.80, 51.0, 11.86, 11.9, 3E
2009/04/16, 00:08:22, , , 26.62, 26.30, 1008.9, 11.2315770, -127.0567670, 290.30, 12.41, 289.50, 1008.33, 540.80, 0.0, 196.35, 70.14, 69.8, 93, 9.2, 55.71990, 33.98600, 28.9093, 33.9860, 55.7199, 61.70, 27.4457, 1539.01, 52.10, 51.2, 11.85, 10.9, 3E
2009/04/16, 00:09:22, , , 26.58, 26.30, 1008.8, 11.2327370, -127.0600050, 287.50, 12.30, 291.00, 1008.60, 542.70, 0.0, 196.35, 71.01, 67.6, 95, 8.7, 55.72500, 33.98750, 28.9120, 33.9875, 55.7250, 61.20, 27.4442, 1539.01, 50.90, 54.6, 11.10, 10.7, 3E
2009/04/16, 00:10:22, , , 26.63, 26.30, 1008.8, 11.2339180, -127.0632300, 293.90, 11.40, 289.60, 1008.42, 537.80, 0.0, 196.35, 71.24, 68.5, 89, 9.0, 55.72040, 33.98970, 28.9046, 33.9897, 55.7204, 61.90, 27.4450, 1539.01, 52.50, 48.2, 10.64, 10.5, 3E
2009/04/16, 00:11:22, , , 26.66, 26.30, 1008.8, 11.2350880, -127.0663930, 290.00, 12.79, 290.20, 1008.66, 529.80, 0.0, 196.35, 72.17, 68.5, 90, 10.3, 55.72600, 33.99220, 28.9064, 33.9922, 55.7260, 61.90, 27.4434, 1539.01, 55.20, 50.2, 10.49, 11.5, 3E
2009/04/16, 00:12:22, , , 26.55, 26.30, 1008.6, 11.2363050, -127.0696520, 294.70, 12.38, 290.80, 1008.52, 532.90, 0.0, 196.35, 70.14, 67.1, 94, 9.0, 55.72740, 33.99390, 28.9054, 33.9939, 55.7274, 62.20, 27.4432, 1539.01, 51.20, 56.0, 11.28, 11.0, 3E
2009/04/16, 00:13:22, , , 26.59, 26.30, 1008.7, 11.2375780, -127.0729580, 294.50, 11.97, 290.90, 1008.67, 535.80, 0.0, 196.35, 70.15, 68.1, 90, 9.4, 55.72740, 33.99530, 28.9034, 33.9953, 55.7274, 62.20, 27.4435, 1539.01, 53.90, 52.4, 10.81, 10.6, 3E
2009/04/16, 00:14:22, , , 26.57, 26.30, 1008.7, 11.2387680, -127.0762120, 283.60, 11.45, 289.70, 1008.44, 532.90, 0.0, 196.35, 69.97, 68.4, 91, 9.5, 55.72550, 33.99580, 28.9009, 33.9958, 55.7255, 62.80, 27.4422, 1539.01, 47.20, 47.4, 10.79, 11.0, 3E
2009/04/16, 00:15:22, , , 26.65, 26.30, 1008.9, 11.2399400, -127.0794330, 285.10, 12.19, 289.20, 1008.42, 531.20, 0.0, 196.35, 70.81, 68.5, 90, 8.5, 55.72020, 33.99730, 28.8936, 33.9973, 55.7202, 61.20, 27.4433, 1539.01, 51.70, 54.3, 11.17, 10.6, 3E
2009/04/16, 00:16:22, , , 26.62, 26.30, 1008.9, 11.2411070, -127.0826630, 289.10, 12.52, 289.60, 1008.29, 543.10, 0.0, 196.35, 70.49, 68.2, 99, 8.8, 55.72910, 33.99990, 28.8986, 33.9999, 55.7291, 61.90, 27.4440, 1539.02, 51.60, 53.4, 11.22, 12.0, 3E
2009/04/16, 00:17:22, , , 26.66, 26.30, 1008.9, 11.2423200, -127.0858720, 292.80, 11.99, 290.50, 1008.62, 513.00, 0.0, 196.35, 71.27, 69.1, 92, 8.4, 55.73650, 34.00230, 28.9024, 34.0023, 55.7365, 61.60, 27.4429, 1539.02, 53.30, 54.8, 11.19, 10.1, 3E
2009/04/16, 00:18:22, , , 26.61, 26.40, 1008.8, 11.2435180, -127.0890770, 291.80, 12.90, 289.70, 1008.53, 556.00, 0.0, 196.35, 70.02, 67.8, 95, 8.2, 55.73970, 34.00470, 28.9021, 34.0047, 55.7397, 62.50, 27.4420, 1539.02, 57.40, 59.8, 10.30, 9.8, 3E
2009/04/16, 00:19:22, , , 26.73, 26.40, 1008.8, 11.2447480, -127.0922880, 295.20, 11.95, 290.70, 1008.54, 557.10, 0.0, 196.35, 70.86, 70.3, 94, 9.6, 55.73760, 34.00610, 28.8981, 34.0061, 55.7376, 62.20, 27.4398, 1539.01, 58.30, 52.5, 10.26, 11.6, 3E
2009/04/16, 00:20:22, , , 26.59, 26.30, 1008.8, 11.2460000, -127.0954970, 291.10, 12.63, 289.60, 1008.73, 579.90, 0.0, 196.35, 68.95, 68.0, 99, 8.7, 55.73190, 34.00800, 28.8899, 34.0080, 55.7319, 61.30, 27.4383, 1539.01, 52.40, 55.2, 11.38, 10.5, 3E
2009/04/16, 00:21:22, , , 26.73, 26.30, 1008.8, 11.2471950, -127.0987820, 288.50, 11.83, 290.30, 1008.46, 509.00, 0.0, 196.35, 70.31, 68.5, 94, 8.9, 55.73730, 34.00910, 28.8936, 34.0091, 55.7373, 61.50, 27.4366, 1539.01, 55.10, 53.8, 10.84, 10.1, 3E
2009/04/16, 00:22:22, , , 26.74, 26.40, 1008.8, 11.2484180, -127.1019930, 290.70, 12.89, 289.50, 1008.67, 506.30, 0.0, 196.35, 70.37, 69.9, 86, 9.3, 55.74290, 34.01160, 28.8954, 34.0116, 55.7429, 61.30, 27.4372, 1539.01, 58.30, 51.2, 11.08, 11.0, 3E
2009/04/16, 00:23:22, , , 26.64, 26.40, 1008.8, 11.2496520, -127.1052580, 294.80, 12.37, 289.40, 1008.47, 543.30, 0.0, 196.35, 69.45, 68.2, 92, 10.0, 55.74530, 34.01310, 28.8957, 34.0131, 55.7453, 62.50, 27.4363, 1539.01, 51.70, 51.3, 11.47, 11.9, 3E
2009/04/16, 00:24:22, , , 26.70, 26.30, 1009.0, 11.2509020, -127.1084670, 292.70, 12.09, 290.70, 1008.36, 407.70, 0.0, 196.35, 69.71, 69.1, 88, 9.2, 55.74930, 34.01570, 28.8959, 34.0157, 55.7493, 62.50, 27.4351, 1539.01, 52.80, 51.5, 11.61, 10.9, 3E
2009/04/16, 00:25:22, , , 26.60, 26.30, 1008.6, 11.2521470, -127.1117280, 286.90, 12.64, 291.00, 1008.43, 455.20, 0.0, 196.35, 69.14, 66.0, 89, 9.6, 55.75200, 34.01820, 28.8949, 34.0182, 55.7520, 62.50, 27.4334, 1539.01, 52.60, 51.9, 10.89, 11.0, 3E
2009/04/16, 00:26:22, , , 26.58, 26.30, 1008.7, 11.2533370, -127.1149300, 288.90, 12.00, 289.90, 1008.69, 333.10, 0.0, 196.35, 68.48, 65.7, 91, 9.1, 55.75600, 34.02130, 28.8945, 34.0213, 55.7560, 62.50, 27.4320, 1539.01, 50.20, 51.3, 11.54, 10.4, 3E
2009/04/16, 00:27:22, , , 26.69, 26.30, 1008.9, 11.2545480, -127.1181480, 287.60, 12.86, 289.20, 1008.41, 484.00, 0.0, 196.35, 69.42, 67.9, 91, 9.6, 55.76160, 34.02380, 28.8964, 34.0238, 55.7616, 62.80, 27.4315, 1539.01, 55.70, 51.5, 11.07, 11.1, 3E
2009/04/16, 00:28:22, , , 26.55, 26.30, 1008.9, 11.2557780, -127.1213830, 291.40, 11.84, 290.60, 1008.60, 384.20, 0.0, 196.35, 67.68, 64.5, 91, 8.9, 55.75790, 34.02430, 28.8921, 34.0243, 55.7579, 62.50, 27.4307, 1539.01, 54.50, 52.8, 11.98, 11.1, 3E
2009/04/16, 00:29:22, , , 26.64, 26.30, 1009.0, 11.2570270, -127.1246200, 289.40, 12.22, 290.90, 1008.66, 387.00, 0.0, 196.35, 68.88, 67.1, 93, 8.0, 55.76160, 34.02690, 28.8920, 34.0269, 55.7616, 63.20, 27.4295, 1539.01, 54.80, 55.8, 10.54, 11.4, 3E
2009/04/16, 00:30:23, , , 26.69, 26.30, 1008.7, 11.2582270, -127.1279020, 289.30, 12.10, 288.20, 1008.71, 450.50, 0.0, 196.35, 69.56, 67.6, 95, 8.0, 55.76080, 34.02770, 28.8902, 34.0277, 55.7608, 62.50, 27.4297, 1539.01, 55.10, 55.5, 11.30, 9.8, 3E
2009/04/16, 00:31:22, , , 26.73, 26.40, 1008.9, 11.2594170, -127.1311830, 285.10, 12.19, 289.50, 1008.58, 458.00, 0.0, 196.35, 69.94, 68.4, 95, 8.6, 55.75600, 34.02840, 28.8845, 34.0284, 55.7560, 62.80, 27.4282, 1539.01, 59.30, 56.3, 10.29, 11.5, 3E
2009/04/16, 00:32:22, , , 26.59, 26.40, 1008.7, 11.2606520, -127.1344480, 287.80, 12.27, 290.00, 1008.36, 442.10, 0.0, 196.35, 68.41, 64.4, 90, 7.9, 55.76030, 34.02920, 28.8875, 34.0292, 55.7603, 62.50, 27.4277, 1539.01, 56.00, 59.1, 10.64, 9.4, 3E
2009/04/16, 00:33:22, , , 26.69, 26.40, 1008.8, 11.2618620, -127.1377130, 290.30, 12.05, 290.90, 1008.40, 429.80, 0.0, 196.35, 68.59, 66.0, 95, 9.0, 55.75870, 34.02970, 28.8853, 34.0297, 55.7587, 62.80, 27.4285, 1539.01, 56.80, 57.8, 10.84, 11.5, 3E
2009/04/16, 00:34:22, , , 26.75, 26.40, 1008.9, 11.2630930, -127.1409300, 293.00, 11.89, 289.80, 1008.55, 421.90, 0.0, 196.35, 68.51, 68.0, 88, 8.9, 55.75860, 34.03140, 28.8828, 34.0314, 55.7586, 62.80, 27.4295, 1539.02, 57.50, 52.8, 10.89, 10.6, 3E
2009/04/16, 00:35:22, , , 26.70, 26.40, 1008.8, 11.2643200, -127.1440770, 284.80, 12.23, 290.50, 1008.46, 422.70, 0.0, 196.35, 69.07, 65.4, 85, 9.5, 55.76030, 34.03150, 28.8843, 34.0315, 55.7603, 61.30, 27.4295, 1539.02, 53.90, 49.5, 10.91, 10.5, 3E
2009/04/16, 00:36:23, , , 26.67, 26.40, 1008.8, 11.2655130, -127.1473100, 291.40, 12.05, 288.90, 1008.28, 417.80, 0.0, 196.35, 69.12, 65.3, 90, 9.9, 55.75810, 34.03330, 28.8798, 34.0333, 55.7581, 61.50, 27.4309, 1539.02, 53.10, 52.8, 11.55, 11.9, 3E
2009/04/16, 00:37:22, , , 26.64, 26.40, 1008.8, 11.2667130, -127.1505580, 287.90, 12.68, 290.50, 1008.52, 418.00, 0.0, 196.35, 68.76, 65.7, 89, 8.3, 55.75950, 34.03490, 28.8788, 34.0349, 55.7595, 62.80, 27.4314, 1539.03, 55.10, 56.0, 10.76, 9.8, 3E
2009/04/16, 00:38:22, , , 26.68, 26.40, 1008.8, 11.2679620, -127.1538920, 291.60, 11.88, 289.50, 1008.73, 308.60, 0.0, 196.35, 69.17, 66.9, 93, 9.1, 55.76030, 34.03710, 28.8764, 34.0371, 55.7603, 61.70, 27.4328, 1539.03, 55.60, 55.1, 10.56, 11.0, 3E
2009/04/16, 00:39:22, , , 26.60, 26.30, 1008.9, 11.2691870, -127.1571770, 289.10, 12.39, 289.60, 1008.47, 112.30, 0.0, 196.35, 69.41, 66.6, 92, 8.1, 55.75550, 34.03890, 28.8694, 34.0389, 55.7555, 62.50, 27.4356, 1539.04, 57.80, 58.9, 10.45, 9.9, 3E
2009/04/16, 00:40:22, , , 26.60, 26.30, 1008.8, 11.2703800, -127.1604400, 297.30, 12.18, 288.70, 1008.79, 258.00, 0.0, 196.35, 71.24, 67.3, 97, 7.5, 55.76160, 34.04060, 28.8729, 34.0406, 55.7616, 62.50, 27.4367, 1539.04, 57.70, 61.3, 11.47, 10.8, 3E
2009/04/16, 00:41:22, , , 26.58, 26.30, 1008.9, 11.2715800, -127.1636850, 291.00, 12.48, 291.40, 1008.78, 190.50, 0.0, 196.35, 71.73, 68.5, 86, 7.8, 55.76720, 34.04420, 28.8732, 34.0442, 55.7672, 61.70, 27.4395, 1539.05, 60.20, 54.3, 10.38, 9.9, 3E
2009/04/16, 00:42:22, , , 26.43, 26.30, 1008.6, 11.2728400, -127.1668950, 289.10, 12.30, 291.00, 1008.59, 299.40, 0.0, 196.35, 68.59, 67.4, 93, 10.0, 55.77310, 34.04660, 28.8755, 34.0466, 55.7731, 61.50, 27.4409, 1539.06, 53.30, 50.3, 9.88, 10.7, 3E
2009/04/16, 00:43:22, , , 26.49, 26.30, 1008.8, 11.2741030, -127.1701280, 290.20, 12.25, 289.60, 1008.37, 451.30, 0.0, 196.35, 67.74, 65.8, 94, 9.5, 55.77800, 34.04850, 28.8776, 34.0485, 55.7780, 63.40, 27.4430, 1539.07, 50.70, 50.3, 11.72, 11.3, 3E
2009/04/16, 00:44:22, , , 26.64, 26.30, 1008.9, 11.2753450, -127.1733930, 292.30, 13.10, 288.40, 1008.56, 423.60, 0.0, 196.35, 68.59, 66.3, 95, 9.1, 55.77450, 34.04860, 28.8741, 34.0486, 55.7745, 62.80, 27.4448, 1539.07, 51.50, 56.7, 11.67, 11.6, 3E
2009/04/16, 00:45:22, , , 26.61, 26.30, 1009.0, 11.2765550, -127.1766720, 293.60, 12.21, 290.30, 1008.66, 399.00, 0.0, 196.35, 67.28, 65.9, 96, 9.0, 55.77210, 34.05000, 28.8698, 34.0500, 55.7721, 62.80, 27.4457, 1539.07, 56.30, 58.9, 11.58, 10.6, 3E
2009/04/16, 00:46:22, , , 26.66, 26.30, 1008.9, 11.2777830, -127.1799750, 289.70, 12.34, 289.60, 1008.45, 384.60, 0.0, 196.35, 68.30, 65.7, 95, 8.2, 55.77260, 34.05070, 28.8693, 34.0507, 55.7726, 62.20, 27.4471, 1539.08, 56.00, 58.0, 10.80, 11.2, 3E
2009/04/16, 00:47:22, , , 26.69, 26.30, 1008.8, 11.2790070, -127.1832800, 288.30, 12.65, 289.70, 1008.57, 378.30, 0.0, 196.35, 67.79, 67.3, 95, 9.0, 55.77500, 34.05250, 28.8690, 34.0525, 55.7750, 61.50, 27.4486, 1539.08, 60.90, 56.0, 10.66, 11.5, 3E
2009/04/16, 00:48:22, , , 26.75, 26.40, 1008.6, 11.2801900, -127.1865200, 291.40, 12.17, 290.00, 1008.50, 369.70, 0.0, 196.35, 69.08, 67.3, 87, 8.1, 55.77780, 34.05420, 28.8694, 34.0542, 55.7778, 61.90, 27.4496, 1539.09, 58.00, 56.4, 11.10, 9.5, 3E
2009/04/16, 00:49:23, , , 26.68, 26.40, 1008.9, 11.2814050, -127.1898300, 288.80, 12.82, 290.60, 1008.66, 364.10, 0.0, 196.35, 68.65, 66.2, 99, 8.1, 55.77420, 34.05410, 28.8661, 34.0541, 55.7742, 63.40, 27.4516, 1539.09, 57.80, 63.1, 10.12, 10.6, 3E
2009/04/16, 00:50:23, , , 26.79, 26.40, 1008.9, 11.2825920, -127.1931370, 283.50, 12.79, 290.70, 1008.64, 372.10, 0.0, 196.35, 70.00, 70.2, 91, 7.5, 55.77290, 34.05600, 28.8622, 34.0560, 55.7729, 61.70, 27.4525, 1539.10, 61.50, 62.6, 10.29, 9.3, 3E
2009/04/16, 00:51:22, , , 26.71, 26.40, 1008.9, 11.2838380, -127.1964170, 287.10, 12.64, 288.90, 1008.69, 387.10, 0.0, 196.35, 70.10, 68.6, 93, 8.1, 55.77050, 34.05660, 28.8590, 34.0566, 55.7705, 62.50, 27.4522, 1539.10, 52.60, 55.8, 10.54, 10.2, 3E
2009/04/16, 00:52:22, , , 26.61, 26.40, 1008.9, 11.2850950, -127.1996770, 296.70, 12.34, 290.40, 1008.63, 391.60, 0.0, 196.35, 67.75, 68.5, 89, 9.4, 55.77180, 34.05740, 28.8592, 34.0574, 55.7718, 62.20, 27.4530, 1539.10, 57.20, 52.2, 10.31, 10.7, 3E
2009/04/16, 00:53:22, , , 26.60, 26.30, 1009.0, 11.2863850, -127.2029230, 291.50, 12.76, 290.20, 1008.46, 380.80, 0.0, 196.35, 67.87, 65.0, 92, 8.4, 55.76970, 34.05730, 28.8573, 34.0573, 55.7697, 64.70, 27.4540, 1539.10, 51.80, 56.2, 10.88, 10.1, 3E
2009/04/16, 00:54:22, , , 26.70, 26.40, 1009.1, 11.2875780, -127.2062330, 293.40, 11.34, 289.40, 1008.55, 376.60, 0.0, 196.35, 67.97, 66.4, 93, 8.7, 55.76990, 34.05780, 28.8568, 34.0578, 55.7699, 62.80, 27.4572, 1539.11, 53.70, 52.8, 11.19, 11.3, 3E
2009/04/16, 00:55:22, , , 26.66, 26.40, 1009.0, 11.2887930, -127.2095380, 296.20, 12.33, 289.60, 1008.48, 374.70, 0.0, 196.35, 67.91, 64.3, 89, 9.1, 55.75280, 34.05650, 28.8422, 34.0565, 55.7528, 63.20, 27.4585, 1539.11, 58.30, 59.7, 11.55, 10.9, 3E
2009/04/16, 00:56:22, , , 26.68, 26.40, 1008.9, 11.2900030, -127.2127970, 287.60, 12.86, 290.00, 1008.79, 380.80, 0.0, 196.35, 67.03, 66.3, 90, 9.5, 55.75760, 34.05670, 28.8464, 34.0567, 55.7576, 62.80, 27.4569, 1539.11, 53.30, 50.3, 11.39, 11.6, 3E
2009/04/16, 00:57:22, , , 26.74, 26.40, 1008.8, 11.2912380, -127.2160330, 291.70, 12.62, 290.60, 1008.71, 386.30, 0.0, 196.35, 68.46, 65.0, 91, 8.2, 55.76320, 34.05750, 28.8508, 34.0575, 55.7632, 61.70, 27.4559, 1539.11, 53.70, 57.5, 11.99, 12.1, 3E
2009/04/16, 00:58:22, , , 26.76, 26.40, 1008.9, 11.2924400, -127.2192900, 292.60, 12.11, 289.80, 1008.89, 309.70, 0.0, 196.35, 68.82, 68.5, 93, 8.2, 55.76350, 34.05780, 28.8506, 34.0578, 55.7635, 62.20, 27.4556, 1539.11, 54.60, 57.4, 10.73, 10.5, 3E
2009/04/16, 00:59:23, , , 26.68, 26.40, 1009.0, 11.2936450, -127.2225720, 291.40, 12.64, 289.10, 1008.61, 335.00, 0.0, 196.35, 69.14, 66.3, 93, 8.8, 55.76400, 34.05800, 28.8509, 34.0580, 55.7640, 63.40, 27.4569, 1539.11, 59.20, 55.4, 10.73, 10.4, 3E
2009/04/16, 01:00:22, , , 26.72, 26.40, 1009.1, 11.2948300, -127.2258570, 289.60, 11.78, 289.60, 1008.87, 364.60, 0.0, 196.35, 69.83, 66.2, 93, 9.0, 55.76160, 34.05940, 28.8466, 34.0594, 55.7616, 62.50, 27.4576, 1539.11, 57.20, 55.3, 10.39, 10.8, 3E
2009/04/16, 01:01:22, , , 26.74, 26.40, 1009.1, 11.2960280, -127.2291500, 290.50, 12.87, 288.70, 1008.74, 354.00, 0.0, 196.35, 70.47, 68.0, 85, 10.0, 55.76570, 34.06100, 28.8481, 34.0610, 55.7657, 63.20, 27.4572, 1539.11, 56.60, 47.3, 10.44, 10.9, 3E
2009/04/16, 01:02:23, , , 26.62, 26.30, 1009.1, 11.2971970, -127.2324200, 292.50, 12.24, 290.00, 1008.90, 380.80, 0.0, 196.35, 68.55, 66.9, 91, 9.1, 55.76590, 34.06200, 28.8470, 34.0620, 55.7659, 63.40, 27.4572, 1539.11, 49.60, 51.4, 11.60, 11.2, 3E
2009/04/16, 01:03:23, , , 26.71, 26.30, 1009.1, 11.2983650, -127.2356420, 291.70, 13.08, 289.20, 1008.78, 399.60, 0.0, 196.35, 69.55, 68.5, 89, 9.1, 55.77050, 34.06330, 28.8496, 34.0633, 55.7705, 61.70, 27.4548, 1539.11, 49.70, 49.0, 10.58, 10.3, 3E
2009/04/16, 01:04:22, , , 26.67, 26.30, 1009.2, 11.2995600, -127.2389650, 290.20, 12.54, 290.40, 1008.60, 403.30, 0.0, 196.35, 69.42, 67.1, 86, 9.6, 55.77660, 34.06490, 28.8533, 34.0649, 55.7766, 62.20, 27.4526, 1539.11, 52.90, 47.3, 10.72, 10.6, 3E
2009/04/16, 01:05:22, , , 26.63, 26.30, 1009.1, 11.3007100, -127.2422470, 288.10, 12.41, 290.20, 1008.71, 398.70, 0.0, 196.35, 68.46, 66.3, 91, 9.0, 55.78060, 34.06570, 28.8560, 34.0657, 55.7806, 61.90, 27.4502, 1539.10, 51.60, 54.1, 11.26, 10.9, 3E
2009/04/16, 01:06:22, , , 26.72, 26.30, 1009.0, 11.3018880, -127.2455030, 291.80, 12.62, 292.60, 1008.88, 401.20, 0.0, 196.35, 70.04, 66.4, 87, 9.4, 55.78200, 34.06790, 28.8542, 34.0679, 55.7820, 61.70, 27.4473, 1539.10, 53.00, 49.1, 11.02, 10.9, 3E
2009/04/16, 01:07:22, , , 26.66, 26.40, 1009.0, 11.3030920, -127.2487420, 294.40, 12.57, 290.40, 1008.75, 390.00, 0.0, 196.35, 69.03, 66.5, 89, 9.8, 55.78670, 34.06880, 28.8575, 34.0688, 55.7867, 63.40, 27.4440, 1539.09, 50.30, 48.0, 11.29, 11.5, 3E
2009/04/16, 01:08:22, , , 26.58, 26.30, 1009.0, 11.3042630, -127.2520070, 289.90, 12.40, 290.10, 1008.72, 378.20, 0.0, 196.35, 68.40, 66.2, 94, 9.5, 55.79380, 34.07010, 28.8624, 34.0701, 55.7938, 63.40, 27.4421, 1539.09, 53.50, 54.1, 11.47, 10.8, 3E
2009/04/16, 01:09:22, , , 26.68, 26.30, 1009.2, 11.3054580, -127.2552930, 292.60, 11.63, 290.60, 1008.80, 329.40, 0.0, 196.35, 70.00, 67.5, 90, 8.8, 55.79400, 34.07130, 28.8611, 34.0713, 55.7940, 61.90, 27.4409, 1539.09, 55.60, 54.5, 10.83, 10.5, 3E
2009/04/16, 01:10:22, , , 26.60, 26.30, 1008.7, 11.3066020, -127.2585670, 289.60, 12.40, 289.90, 1008.86, 228.30, 0.0, 196.35, 69.33, 67.7, 93, 9.2, 55.79350, 34.07190, 28.8597, 34.0719, 55.7935, 62.80, 27.4394, 1539.08, 55.00, 57.6, 11.53, 11.2, 3E
2009/04/16, 01:11:22, , , 26.55, 26.30, 1009.0, 11.3078120, -127.2618320, 287.50, 13.02, 289.90, 1008.82, 297.90, 0.0, 196.35, 69.20, 66.8, 98, 8.1, 55.79800, 34.07300, 28.8625, 34.0730, 55.7980, 62.50, 27.4382, 1539.08, 54.40, 58.7, 11.34, 9.9, 3E
2009/04/16, 01:12:22, , , 26.67, 26.30, 1009.1, 11.3089750, -127.2651030, 288.20, 12.82, 289.70, 1008.87, 305.30, 0.0, 196.35, 70.56, 69.5, 87, 8.2, 55.80100, 34.07310, 28.8653, 34.0731, 55.8010, 62.20, 27.4371, 1539.08, 58.30, 55.2, 9.98, 9.1, 3E
2009/04/16, 01:13:22, , , 26.65, 26.30, 1009.2, 11.3101130, -127.2683900, 292.70, 12.56, 289.60, 1008.59, 307.70, 0.0, 196.35, 70.73, 69.3, 92, 9.5, 55.80340, 34.07470, 28.8653, 34.0747, 55.8034, 63.70, 27.4365, 1539.08, 57.20, 54.6, 11.02, 11.0, 3E
2009/04/16, 01:14:22, , , 26.52, 26.30, 1008.9, 11.3112970, -127.2716920, 293.70, 13.18, 289.50, 1008.65, 308.50, 0.0, 196.35, 69.29, 67.5, 94, 8.5, 55.81030, 34.07620, 28.8699, 34.0762, 55.8103, 63.70, 27.4363, 1539.08, 53.70, 54.7, 11.87, 11.7, 3E
2009/04/16, 01:15:22, , , 26.58, 26.30, 1009.1, 11.3124700, -127.2749730, 289.40, 12.65, 290.90, 1008.89, 310.40, 0.0, 196.35, 69.58, 66.7, 94, 8.6, 55.81380, 34.07770, 28.8711, 34.0777, 55.8138, 62.20, 27.4361, 1539.08, 62.70, 61.7, 11.19, 10.6, 3E
2009/04/16, 01:16:22, , , 26.67, 26.30, 1009.0, 11.3136500, -127.2783180, 285.20, 12.46, 289.60, 1008.91, 299.40, 0.0, 196.35, 70.44, 67.4, 91, 8.6, 55.81440, 34.07840, 28.8707, 34.0784, 55.8144, 62.20, 27.4363, 1539.08, 59.10, 56.2, 10.55, 10.4, 3E
2009/04/16, 01:17:22, , , 26.62, 26.30, 1009.1, 11.3148080, -127.2816400, 287.90, 11.90, 289.80, 1008.88, 295.20, 0.0, 196.35, 68.67, 66.9, 87, 9.8, 55.81360, 34.07960, 28.8683, 34.0796, 55.8136, 61.90, 27.4372, 1539.09, 54.50, 47.9, 10.03, 10.5, 3E
2009/04/16, 01:18:23, , , 26.61, 26.30, 1009.1, 11.3159800, -127.2849880, 288.90, 12.19, 289.30, 1008.80, 282.00, 0.0, 196.35, 68.60, 68.1, 92, 9.5, 55.82050, 34.08290, 28.8704, 34.0829, 55.8205, 62.80, 27.4375, 1539.09, 51.50, 53.1, 10.90, 11.0, 3E
2009/04/16, 01:19:22, , , 26.64, 26.30, 1009.2, 11.3171550, -127.2882720, 290.00, 12.83, 289.30, 1009.00, 271.20, 0.0, 196.35, 69.08, 67.3, 97, 8.9, 55.82450, 34.08510, 28.8711, 34.0851, 55.8245, 62.50, 27.4379, 1539.09, 57.10, 59.5, 11.36, 11.1, 3E
2009/04/16, 01:20:22, , , 26.54, 26.30, 1009.0, 11.3183430, -127.2915570, 291.10, 12.81, 290.30, 1009.03, 269.30, 0.0, 196.35, 66.51, 65.4, 96, 8.7, 55.83330, 34.08980, 28.8729, 34.0898, 55.8333, 61.90, 27.4387, 1539.10, 58.30, 60.1, 11.55, 11.3, 3E
2009/04/16, 01:21:22, , , 26.84, 26.30, 1009.2, 11.3194830, -127.2948370, 285.70, 12.13, 289.30, 1008.83, 270.40, 0.0, 196.35, 69.85, 69.6, 89, 9.0, 55.83740, 34.09490, 28.8698, 34.0949, 55.8374, 62.20, 27.4394, 1539.11, 56.00, 50.9, 10.33, 10.4, 3E
2009/04/16, 01:22:22, , , 26.65, 26.40, 1009.1, 11.3206280, -127.2981220, 283.70, 11.81, 290.90, 1008.81, 261.50, 0.0, 196.35, 68.39, 67.7, 87, 8.8, 55.83630, 34.09760, 28.8649, 34.0976, 55.8363, 62.50, 27.4399, 1539.11, 54.20, 52.5, 10.20, 9.8, 3E
2009/04/16, 01:23:22, , , 26.69, 26.40, 1009.1, 11.3217920, -127.3014180, 289.40, 12.20, 291.60, 1008.96, 259.50, 0.0, 196.35, 70.19, 67.8, 88, 9.9, 55.84540, 34.10190, 28.8677, 34.1019, 55.8454, 62.20, 27.4420, 1539.12, 51.90, 48.6, 10.56, 10.8, 3E
2009/04/16, 01:24:22, , , 26.60, 26.30, 1009.2, 11.3229650, -127.3047100, 292.80, 12.89, 288.50, 1008.87, 266.10, 0.0, 196.35, 70.59, 68.4, 91, 8.3, 55.85080, 34.10510, 28.8683, 34.1051, 55.8508, 62.20, 27.4435, 1539.13, 51.70, 55.9, 11.48, 10.7, 3E
2009/04/16, 01:25:22, , , 26.61, 26.30, 1009.4, 11.3241230, -127.3080180, 295.00, 11.86, 289.60, 1008.89, 242.10, 0.0, 196.35, 70.84, 69.7, 89, 9.6, 55.85190, 34.10800, 28.8653, 34.1080, 55.8519, 61.90, 27.4421, 1539.13, 57.40, 58.0, 10.98, 10.4, 3E
2009/04/16, 01:26:22, , , 26.65, 26.30, 1009.4, 11.3252580, -127.3112820, 289.80, 12.79, 289.40, 1008.99, 264.70, 0.0, 196.35, 71.38, 71.8, 92, 8.9, 55.85510, 34.11200, 28.8628, 34.1120, 55.8551, 61.70, 27.4402, 1539.13, 57.00, 55.0, 10.67, 10.1, 3E
2009/04/16, 01:27:22, , , 26.57, 26.30, 1009.4, 11.3263630, -127.3145370, 285.00, 12.14, 289.70, 1008.91, 263.70, 0.0, 196.35, 71.20, 69.9, 96, 8.2, 55.86150, 34.11650, 28.8627, 34.1165, 55.8615, 63.20, 27.4368, 1539.12, 54.80, 60.1, 9.98, 10.1, 3E
2009/04/16, 01:28:22, , , 26.58, 26.30, 1009.6, 11.3274830, -127.3177920, 284.50, 12.13, 290.00, 1008.87, 229.40, 0.0, 196.35, 71.21, 67.8, 92, 8.1, 55.86880, 34.12230, 28.8616, 34.1223, 55.8688, 62.20, 27.4349, 1539.13, 58.60, 57.5, 10.26, 9.8, 3E
2009/04/16, 01:29:22, , , 26.57, 26.30, 1009.2, 11.3286270, -127.3210300, 282.60, 12.02, 289.80, 1009.11, 140.30, 0.0, 196.35, 70.36, 68.1, 93, 8.9, 55.87310, 34.12620, 28.8603, 34.1262, 55.8731, 62.80, 27.4352, 1539.13, 56.80, 55.4, 10.75, 10.8, 3E
2009/04/16, 01:30:22, , , 26.50, 26.30, 1009.3, 11.3297730, -127.3243120, 292.30, 12.61, 290.80, 1009.17, 160.40, 0.0, 196.35, 70.36, 67.2, 92, 8.7, 55.87630, 34.13020, 28.8578, 34.1302, 55.8763, 63.70, 27.4353, 1539.14, 57.50, 54.7, 10.52, 10.5, 3E
2009/04/16, 01:31:22, , , 26.48, 26.30, 1009.3, 11.3309820, -127.3276330, 290.70, 12.02, 290.80, 1009.03, 155.40, 0.0, 196.35, 70.05, 67.3, 101, 9.5, 55.87010, 34.13230, 28.8489, 34.1323, 55.8701, 63.40, 27.4356, 1539.14, 59.40, 62.9, 10.71, 12.1, 3E
2009/04/16, 01:32:22, , , 26.55, 26.30, 1009.3, 11.3321280, -127.3309500, 290.80, 13.11, 290.20, 1009.05, 205.70, 0.0, 196.35, 69.21, 68.2, 98, 8.6, 55.86930, 34.13500, 28.8444, 34.1350, 55.8693, 62.20, 27.4354, 1539.14, 60.50, 61.5, 11.81, 11.8, 3E
2009/04/16, 01:33:22, , , 26.50, 26.30, 1009.2, 11.3333050, -127.3342250, 290.80, 13.44, 289.80, 1009.14, 205.50, 0.0, 196.35, 67.90, 64.9, 98, 7.2, 55.87070, 34.13640, 28.8436, 34.1364, 55.8707, 63.70, 27.4351, 1539.14, 59.50, 66.1, 11.12, 10.0, 3E